Theta_e
313 313 314 315 315 317 317 316 316 317 318 318 316 316 316 315 315 318 319 318 319 318 318 319 322 325 327 327 328 328 328 330 332 332 330 333 338 338 338 339 340 340 340 341 340 340 340 341 341 341 342 341 341 341 340 340 340 340 339 338 338 337 336 336 336 336 335 336 337 338 338 338 337 337 337 338 338 338 336 336 335 335 334 333 332 330
313 312 314 316 315 316 317 317 317 318 318 318 316 315 316 315 316 318 319 318 319 318 318 320 323 326 328 328 330 331 330 331 333 334 334 336 337 337 337 337 337 337 337 338 338 338 338 339 339 340 341 341 341 341 340 340 340 340 339 338 338 337 336 336 337 336 337 338 339 339 339 338 337 337 338 338 338 337 336 336 335 333 333 334 334 332
313 312 313 316 316 316 317 317 317 318 318 318 317 315 314 315 317 317 318 318 318 318 320 323 324 326 328 328 331 333 333 334 334 334 335 335 334 333 333 333 333 333 333 335 335 335 336 337 338 339 339 339 339 340 339 339 339 339 338 338 338 338 337 337 337 337 338 338 339 338 338 337 337 337 337 337 337 336 335 335 335 334 333 334 334 334
313 313 314 315 316 316 317 316 317 318 318 318 317 314 313 315 316 314 316 319 319 321 323 324 325 327 329 329 330 332 333 332 331 331 332 332 331 330 329 330 330 330 329 331 332 333 335 336 338 338 337 338 338 338 338 337 338 338 338 338 338 338 338 338 337 336 336 336 337 336 336 335 335 336 335 335 335 335 335 336 336 334 334 334 334 335
313 314 315 315 315 316 317 316 317 317 317 317 316 315 314 316 316 315 316 318 319 321 323 323 323 325 327 328 329 330 331 330 329 329 329 329 329 329 328 327 327 327 327 328 329 330 333 334 335 335 335 336 336 337 337 336 337 338 338 338 338 338 338 337 337 336 336 335 335 335 334 333 333 334 334 334 334 335 335 335 335 334 334 334 334 335
315 315 315 315 314 316 316 316 317 317 315 315 316 316 316 317 318 317 317 316 315 317 321 322 319 321 325 327 328 328 329 329 328 329 328 327 327 327 327 326 326 326 325 325 326 327 329 331 331 332 333 333 333 334 335 335 335 336 337 338 338 338 337 337 336 336 336 335 335 335 335 335 335 335 336 336 336 335 333 333 335 334 333 333 334 335
316 316 314 315 315 315 317 317 317 317 315 313 315 317 317 318 317 317 317 315 314 316 321 322 318 318 323 325 328 329 328 327 326 327 327 326 326 325 325 325 324 324 324 324 324 324 326 327 328 329 330 331 331 332 332 333 334 334 334 335 335 336 336 336 336 336 336 336 336 336 336 337 337 336 337 337 336 335 333 333 334 334 332 331 333 335
316 316 314 315 316 316 317 317 316 316 314 314 316 317 317 317 317 318 317 315 316 317 320 321 318 318 322 326 328 329 328 327 326 326 326 325 325 324 324 324 323 323 324 324 324 324 324 325 325 326 327 329 328 328 329 330 331 332 332 331 332 333 334 334 334 335 336 337 337 336 336 337 337 336 337 337 336 336 335 334 334 334 332 330 331 333
316 315 315 316 317 317 316 315 316 316 314 316 318 317 317 317 317 318 317 315 317 317 316 319 317 317 321 327 329 328 328 327 327 325 324 324 324 323 323 323 323 323 323 323 323 323 324 324 324 324 325 325 325 325 326 327 328 329 330 329 330 331 332 332 332 333 334 335 336 336 336 335 335 335 336 336 336 336 336 335 335 335 334 333 332 331
315 315 316 316 316 316 315 315 316 315 315 317 318 317 317 317 317 318 317 315 316 316 315 317 318 314 319 328 329 328 328 327 327 325 324 324 323 322 323 322 323 323 323 323 322 322 323 323 323 323 324 324 324 324 325 325 326 326 327 327 328 329 330 331 331 332 332 333 334 335 335 335 334 334 335 335 336 335 335 335 335 335 335 333 332 331
316 317 317 317 317 316 315 315 317 316 315 317 318 317 316 315 317 317 316 315 314 314 314 316 318 315 319 327 328 327 328 327 327 324 323 323 322 322 322 322 322 322 322 322 322 321 321 321 322 322 323 323 323 323 323 324 324 324 324 325 326 326 328 329 330 331 331 331 332 333 334 334 334 334 333 334 335 335 335 335 335 335 335 333 332 332
316 317 317 317 317 316 316 315 317 317 316 317 317 316 314 314 314 313 314 315 313 313 313 315 318 314 316 324 327 327 329 327 325 323 323 323 323 322 322 322 321 321 321 321 321 320 320 320 321 321 321 322 321 321 322 322 323 323 323 324 324 324 325 327 328 328 329 330 330 331 332 332 332 332 332 333 334 334 334 335 335 335 335 334 333 332
315 316 316 316 316 316 316 314 315 316 315 316 316 315 313 312 313 313 313 313 312 313 314 315 316 313 317 325 328 328 328 326 325 324 323 323 323 322 321 321 320 320 320 320 319 319 319 319 319 319 320 320 320 320 320 321 321 322 322 322 323 323 324 324 325 326 326 327 328 329 330 331 331 331 332 332 333 332 333 333 334 335 335 334 334 334
314 316 315 315 315 315 315 314 313 314 314 315 314 313 313 312 313 314 313 313 313 313 314 316 315 317 325 330 329 327 326 325 324 323 322 322 322 321 320 319 319 318 318 318 318 318 317 317 317 318 318 319 319 319 319 319 320 320 320 321 322 322 322 322 323 324 324 325 326 327 328 329 330 331 331 331 331 331 332 332 332 333 333 333 334 333
312 315 316 315 315 315 315 315 315 315 314 314 315 314 313 312 314 314 313 313 312 312 314 315 315 321 330 330 326 326 325 324 323 322 321 321 320 319 318 318 317 317 317 316 317 317 316 316 317 317 318 318 318 318 318 319 319 319 319 319 320 320 320 321 321 322 323 323 324 325 326 327 328 329 330 330 331 331 331 331 331 331 331 332 332 331
312 313 316 316 316 315 315 316 317 316 313 315 315 314 313 314 315 313 313 315 314 313 314 316 321 326 329 328 325 325 324 323 323 322 321 320 319 318 317 317 316 316 316 316 316 316 316 316 317 317 317 317 317 317 318 318 318 318 319 319 319 319 319 319 320 320 321 322 322 324 324 325 325 326 327 329 330 331 332 331 331 331 331 331 331 331
312 313 315 315 315 315 315 316 317 315 314 314 313 312 314 316 317 313 313 316 315 314 314 319 328 328 328 328 325 323 323 322 322 322 321 319 318 317 316 316 315 315 315 315 315 315 316 316 316 316 316 316 317 317 317 317 318 318 318 318 318 318 318 318 319 319 319 320 321 321 322 323 324 325 325 327 328 329 330 331 331 331 331 332 331 331
314 314 315 314 314 315 316 315 316 316 315 314 311 313 315 316 316 314 313 314 313 314 316 321 330 330 329 330 326 323 323 321 320 321 320 319 318 317 316 315 315 315 315 315 315 315 315 316 316 316 316 316 316 316 316 316 317 317 317 317 318 318 318 318 318 318 318 319 319 319 320 321 322 323 324 325 326 327 328 330 330 331 332 331 331 331
315 313 314 315 314 315 316 314 314 315 315 314 314 315 315 312 313 313 313 314 313 315 316 319 328 329 327 328 326 324 323 321 320 320 320 319 318 316 316 315 315 315 315 315 315 315 315 315 315 316 316 316 316 315 316 316 316 316 316 317 317 317 317 317 317 317 318 318 318 319 319 319 320 321 322 324 325 326 327 328 329 331 331 331 331 331
316 314 313 315 314 314 314 313 312 314 314 315 315 315 315 313 313 312 312 315 313 313 316 317 322 325 324 326 327 324 323 322 321 320 320 319 318 316 316 315 315 315 315 315 315 315 315 315 315 315 315 315 315 315 315 315 315 316 316 316 316 316 316 316 316 317 317 318 318 318 318 318 318 319 319 321 324 326 327 327 328 329 330 331 331 331
316 315 314 315 314 314 313 312 313 314 313 314 314 314 314 313 315 315 313 314 313 312 315 315 318 325 327 326 326 324 323 322 321 320 320 319 317 315 315 315 315 315 315 315 315 315 315 315 314 314 314 315 315 315 315 315 315 315 315 315 315 315 315 315 316 316 316 317 317 317 317 317 318 317 317 318 320 323 325 326 326 327 328 330 331 331
315 315 315 314 313 312 313 313 315 316 315 315 314 314 314 313 313 314 313 314 312 313 313 313 321 328 327 325 325 323 322 321 321 320 319 317 315 315 314 314 315 315 314 314 314 314 314 314 314 313 313 314 314 314 314 314 314 314 314 315 314 314 315 315 315 315 315 316 316 317 317 316 317 317 316 316 316 319 321 324 326 326 327 328 329 330
316 316 315 314 313 313 314 315 315 316 316 315 315 315 315 314 314 312 312 313 312 314 312 313 325 328 324 324 325 322 321 321 320 319 318 316 315 314 314 314 314 314 314 314 314 313 313 313 313 313 312 312 313 312 312 312 313 313 313 313 314 314 314 314 314 315 315 315 315 316 316 316 316 316 315 316 316 316 316 319 322 325 326 327 327 328
317 316 314 314 314 314 315 316 315 316 318 316 314 315 315 315 315 313 315 315 313 314 311 315 327 327 321 321 323 320 320 319 318 317 317 316 315 314 314 314 314 314 313 313 313 313 312 312 312 312 311 311 311 311 311 311 311 311 311 311 312 313 313 313 314 314 314 314 315 315 315 315 315 315 314 314 315 316 315 316 317 320 323 326 327 327
315 315 315 315 314 315 316 317 316 316 317 316 316 316 315 316 316 316 317 315 314 315 311 315 327 326 319 318 318 317 317 316 316 316 315 315 315 314 314 314 314 314 313 313 312 312 312 311 311 310 310 310 310 309 309 309 309 309 309 310 310 311 312 313 313 313 314 314 314 314 314 314 314 314 313 313 314 314 315 315 316 317 318 321 324 326
315 315 315 314 314 315 316 315 315 315 316 317 316 316 316 316 316 316 315 314 315 315 311 317 325 323 318 316 316 314 314 314 314 314 314 314 314 314 314 314 314 313 313 312 312 311 311 311 310 310 309 309 309 309 309 308 308 308 308 308 309 310 311 312 312 313 313 313 313 313 313 313 313 313 312 312 312 313 314 315 315 316 316 317 320 322
316 318 320 319 318 317 316 316 316 316 315 315 316 316 317 317 318 317 314 314 315 315 317 322 323 320 318 316 315 314 313 312 313 313 312 313 313 314 314 314 313 313 312 311 311 310 310 310 310 310 309 309 309 308 309 308 308 307 307 307 308 309 310 311 311 312 312 312 312 312 312 312 312 312 312 312 311 311 312 314 314 315 316 317 317 319
317 320 323 324 321 319 319 319 318 317 316 315 316 317 318 318 320 318 314 316 317 316 322 324 322 319 318 316 314 313 312 311 312 312 311 312 313 313 313 313 313 312 311 310 310 310 310 309 309 309 309 309 309 308 309 308 308 307 307 307 307 308 309 310 311 311 311 311 311 311 311 311 311 311 311 311 311 310 311 312 314 315 316 316 317 318
317 320 323 324 321 319 320 321 319 318 318 317 316 318 318 318 319 318 317 320 321 320 323 324 322 320 317 315 313 312 311 310 310 311 311 311 311 312 312 312 312 310 310 309 309 309 309 309 309 309 309 308 308 308 308 308 308 308 307 306 306 307 308 309 310 310 311 311 311 310 310 310 310 311 310 310 310 310 310 311 312 314 315 316 317 317
317 320 323 322 320 319 320 320 320 320 322 322 320 319 320 319 320 322 322 323 324 324 325 323 321 319 316 313 312 311 310 310 310 310 310 310 311 311 311 311 310 309 308 308 308 308 308 308 309 309 308 308 308 308 308 308 308 307 307 306 306 306 307 308 309 310 310 310 310 310 310 310 309 310 310 310 309 309 309 309 310 312 314 315 316 317
320 321 323 322 321 321 320 320 321 322 323 324 324 323 324 324 324 326 326 325 325 326 323 320 318 316 313 311 310 309 308 309 309 309 310 310 310 310 309 309 308 307 307 307 307 307 307 307 308 308 308 308 307 307 307 308 308 307 307 306 306 306 307 307 308 309 309 309 309 309 309 309 309 309 309 309 309 309 309 308 308 309 311 313 314 316
321 321 323 322 321 323 321 321 322 323 322 322 323 323 324 324 325 325 325 325 325 322 319 317 315 312 310 309 308 308 308 308 308 309 309 309 309 309 308 308 307 307 307 307 307 307 306 306 306 307 307 307 307 307 307 308 307 307 306 306 306 306 306 307 308 308 308 308 308 308 308 308 308 308 308 308 308 308 308 308 307 307 308 309 311 312
319 320 323 321 321 323 323 323 323 321 319 320 319 319 321 322 323 323 322 323 322 320 318 317 314 309 308 308 307 307 308 308 307 308 307 308 308 307 307 307 307 307 307 307 306 306 306 306 306 306 306 306 306 307 307 307 307 306 306 306 305 305 306 306 307 307 308 307 307 307 307 307 307 307 307 307 307 308 307 307 307 306 306 307 307 309
319 319 321 320 320 322 323 323 322 320 319 319 316 316 319 320 320 320 320 319 318 316 316 314 310 308 308 308 307 307 307 307 307 307 307 307 307 307 307 307 307 307 306 306 306 306 306 306 306 306 305 305 306 307 306 306 306 306 306 305 305 305 305 306 306 306 307 307 307 306 306 306 307 307 307 307 307 307 307 307 306 306 306 306 306 306
319 318 319 319 318 321 322 323 324 323 319 316 314 315 317 318 317 317 316 316 315 313 311 310 308 308 308 307 307 307 306 306 306 306 306 306 306 307 307 307 307 307 307 306 306 306 306 305 305 305 305 305 306 306 306 305 305 305 305 305 305 305 305 305 305 306 306 306 306 306 306 306 306 306 306 306 306 306 306 306 306 306 306 306 305 305
320 318 319 319 318 319 321 322 323 320 315 314 315 315 315 315 315 315 314 314 314 312 310 309 308 308 307 306 306 305 305 305 305 305 305 305 306 306 307 307 306 306 306 305 305 305 305 304 304 304 305 305 306 305 305 305 305 305 305 305 305 305 304 305 305 305 305 305 305 305 305 305 305 305 305 305 305 305 305 305 305 305 305 305 305 305
319 318 318 320 318 318 319 319 318 316 316 315 315 315 315 316 317 317 314 312 312 311 310 308 306 306 306 305 305 304 304 304 304 304 304 304 305 305 305 305 305 304 304 303 303 304 303 303 303 303 304 304 305 304 304 304 304 304 304 304 304 304 304 304 304 304 304 304 304 304 304 304 305 305 305 305 304 304 304 304 304 304 304 304 304 305
319 319 319 319 318 317 319 319 318 319 319 317 315 315 316 317 317 316 314 311 311 311 309 307 306 306 305 305 304 304 304 304 303 303 303 304 304 304 304 304 304 303 303 302 302 302 302 302 302 303 303 304 304 304 304 303 303 304 304 304 304 304 304 304 303 304 304 304 304 303 303 303 304 304 304 304 304 304 304 304 303 303 303 303 303 303
319 319 318 317 317 318 318 319 319 319 319 317 315 315 316 317 317 316 316 314 311 309 309 308 307 306 305 305 304 305 306 306 304 303 303 303 303 303 303 303 303 303 303 302 302 302 302 302 302 302 303 303 303 303 303 303 303 303 303 303 303 303 303 303 303 303 303 303 303 303 303 303 303 303 303 303 303 303 303 303 303 303 303 303 303 303
318 318 317 316 317 317 317 317 317 316 316 316 316 315 315 316 316 317 318 316 311 309 309 308 307 307 306 305 305 306 308 307 304 303 303 302 302 303 303 303 303 303 303 302 302 302 302 302 302 302 302 303 303 302 302 303 303 303 303 303 303 303 303 303 302 302 302 302 302 302 302 302 302 302 303 303 303 302 302 302 302 302 302 302 302 302
317 317 317 317 316 316 316 316 316 315 315 315 315 315 315 315 316 317 317 314 310 309 309 308 308 307 307 306 307 308 308 306 304 303 302 302 303 303 303 303 303 302 301 301 302 302 301 302 302 302 302 302 302 302 302 302 303 303 303 303 303 302 302 302 302 302 302 302 302 301 301 301 301 302 302 302 302 302 302 301 302 301 301 302 302 302
316 315 315 315 315 315 315 315 315 315 314 314 314 314 314 315 316 315 314 311 309 309 308 308 308 308 307 307 308 307 305 304 303 303 303 303 303 303 303 303 302 301 300 300 301 301 301 302 302 302 302 302 302 302 302 302 302 302 302 303 303 302 302 302 302 301 301 301 301 301 301 301 301 301 301 301 301 301 301 301 301 301 301 301 301 301
316 315 313 313 314 314 313 314 315 315 314 313 314 314 313 314 314 313 311 310 309 308 308 308 307 307 307 307 306 305 304 303 303 303 303 303 303 303 303 302 301 300 300 300 301 301 301 301 302 302 302 302 302 302 302 301 302 302 302 302 302 302 302 302 301 301 301 301 301 301 301 301 301 300 300 300 300 300 300 300 300 300 300 300 300 301
316 315 313 314 314 315 314 314 315 314 313 313 313 313 313 313 313 312 311 311 309 308 308 307 306 306 306 306 305 304 304 304 304 304 303 303 303 302 302 301 301 301 301 301 301 301 301 302 302 302 302 302 302 302 302 301 301 301 302 302 302 302 302 301 301 301 301 301 301 300 300 300 301 300 300 300 299 299 300 299 299 298 299 300 300 300
315 315 314 313 312 313 313 312 312 312 312 313 313 313 312 312 312 311 311 310 309 308 308 307 307 306 305 305 304 304 304 304 304 304 303 303 302 301 301 301 301 302 301 301 301 301 301 301 301 301 301 302 302 301 301 301 301 301 301 302 302 302 301 301 301 301 300 300 300 300 300 300 300 300 300 300 299 299 299 299 298 297 297 298 299 300
314 314 315 312 309 310 310 310 311 312 311 312 312 312 312 312 311 311 310 309 309 308 308 307 306 305 305 305 305 305 304 304 303 303 303 302 300 300 300 301 301 301 300 300 301 300 300 301 301 301 301 300 300 300 300 300 300 300 301 301 302 301 301 301 301 300 300 300 300 300 300 300 300 300 300 300 299 299 298 298 298 297 297 297 298 299
313 314 314 312 311 311 310 309 310 311 310 311 311 311 311 311 311 310 309 309 308 308 307 307 306 305 305 305 305 304 304 303 303 302 302 300 300 300 300 300 300 300 300 300 300 300 301 300 300 300 300 300 300 299 300 300 300 300 301 301 301 301 301 300 300 300 300 300 300 300 300 300 299 299 300 300 299 299 298 298 298 297 297 296 297 297
312 314 314 312 312 312 310 309 310 310 310 310 310 310 310 310 310 309 309 308 308 307 307 306 306 305 305 305 304 304 303 303 302 301 301 300 300 300 299 299 299 299 300 300 300 301 301 300 299 299 299 299 299 299 300 300 300 300 301 301 301 301 301 300 300 300 300 299 299 299 299 299 299 299 299 300 300 299 298 298 298 297 296 296 296 296
312 313 312 311 310 309 308 309 310 309 309 309 309 310 310 309 309 309 308 307 307 307 306 306 305 305 305 304 304 304 303 302 301 301 300 300 300 299 299 299 299 299 300 300 301 301 300 300 299 299 299 299 299 300 300 301 300 301 301 301 301 301 301 300 300 300 300 299 299 299 299 299 299 299 299 299 299 299 298 298 298 297 297 296 296 296
312 311 311 310 309 309 308 309 309 309 309 308 308 309 309 309 308 308 307 307 307 306 306 306 305 305 304 304 304 303 303 302 301 300 300 300 299 299 299 299 299 300 300 300 300 300 300 299 299 299 300 300 300 300 300 301 301 301 301 301 301 301 301 300 300 300 300 299 299 299 299 299 299 299 299 299 299 299 299 298 298 298 297 296 296 296
312 311 311 311 311 311 310 309 310 310 309 308 308 308 308 308 308 307 307 307 306 306 306 306 305 304 304 303 303 303 302 301 301 300 300 299 299 299 299 299 300 300 300 300 300 300 299 299 299 300 300 300 300 300 301 301 301 301 301 301 301 301 300 300 300 300 300 299 299 299 299 299 299 299 299 299 299 299 299 298 298 298 297 297 296 296
Wind_Speed
15 10 11 12 12 14 15 17 16 12 9 11 14 11 9 11 10 12 15 18 18 13 14 16 13 11 10 10 9 10 9 6 7 7 8 11 13 12 13 13 14 16 13 11 9 8 7 7 6 5 4 4 3 3 2 1 1 1 2 2 4 6 6 6 5 5 7 8 8 9 9 10 12 13 11 10 10 10 11 11 11 11 12 13 13 15
15 11 12 15 15 17 16 16 17 12 8 9 12 11 10 11 8 10 13 16 18 14 11 15 14 11 9 9 10 10 9 7 8 7 7 13 15 13 14 16 16 15 16 16 15 12 10 9 8 8 6 5 5 4 2 1 1 1 2 2 4 5 3 3 4 4 6 7 7 8 8 8 10 11 10 10 10 11 12 12 11 12 13 14 14 15
13 11 15 17 16 16 15 15 16 12 9 8 9 10 9 10 9 10 12 14 15 10 7 12 12 10 8 10 11 11 12 13 13 12 12 13 13 13 14 15 14 14 16 16 15 14 12 11 11 11 10 9 8 5 4 3 2 1 2 2 3 3 2 3 4 4 5 6 7 7 8 8 9 9 8 10 11 12 14 13 11 11 12 13 14 14
10 11 16 17 16 15 14 17 16 11 9 9 9 10 8 12 12 10 12 14 11 7 9 13 10 8 9 10 10 12 15 15 14 12 12 11 12 14 14 14 14 13 14 14 13 12 11 12 12 12 11 10 10 7 6 5 3 2 3 2 1 1 2 4 5 5 5 6 7 7 8 9 10 9 9 10 12 13 13 12 11 11 12 12 13 13
10 12 17 17 17 16 15 17 16 10 9 10 11 10 9 14 13 10 11 13 11 10 13 14 9 6 9 10 9 11 14 14 13 11 11 11 11 13 14 14 14 14 14 13 11 10 10 10 9 10 9 8 7 7 6 6 5 4 4 4 3 2 2 3 5 5 6 6 5 6 8 9 9 9 8 9 9 10 11 10 9 10 11 11 12 13
11 13 17 18 18 19 16 15 16 12 9 10 13 13 12 13 13 14 16 14 10 10 13 15 9 7 11 10 9 9 10 10 9 9 10 10 10 11 13 13 13 14 13 12 11 10 9 8 7 6 6 5 4 5 5 5 5 5 4 4 4 3 2 2 4 4 5 6 6 7 8 8 8 8 7 7 7 9 10 10 9 9 9 11 12 14
10 13 17 18 18 18 16 13 16 15 9 8 12 14 14 12 13 15 17 13 9 8 13 16 10 6 10 10 10 10 9 9 7 8 8 9 10 11 11 12 12 12 12 11 11 10 9 9 8 7 6 5 5 4 3 3 3 3 3 2 1 2 1 2 2 3 5 6 6 7 8 8 9 9 8 8 9 10 11 11 11 11 11 13 14 14
10 15 17 18 17 15 14 12 15 17 12 6 12 15 13 10 12 14 15 12 9 8 13 17 14 7 7 9 12 13 10 10 8 7 7 8 10 11 11 11 12 12 11 11 11 11 10 10 9 9 8 6 6 6 4 2 1 1 2 3 1 1 1 2 2 2 4 6 7 8 8 8 9 10 9 9 10 10 10 11 12 12 12 14 15 15
12 16 17 18 16 13 13 13 15 17 13 8 13 16 10 9 13 15 13 11 9 9 10 15 16 9 6 9 11 13 12 11 10 9 8 8 10 10 11 11 11 12 11 12 11 11 10 10 10 10 9 8 8 7 7 6 5 5 4 4 3 1 2 3 3 3 3 6 7 8 9 10 10 11 10 10 10 9 10 10 12 12 13 14 15 16
12 14 16 16 13 11 13 15 15 17 14 10 12 16 12 9 10 10 11 10 10 10 9 13 15 10 6 10 11 11 12 11 10 8 7 9 10 10 11 10 11 11 11 11 11 10 10 10 9 9 9 9 8 7 7 7 6 6 6 7 6 4 3 4 4 4 4 6 7 7 9 11 11 12 12 11 11 12 12 13 13 13 14 15 16 16
9 10 13 13 13 12 14 15 15 17 16 8 7 13 13 10 8 7 8 8 9 10 11 14 17 13 7 7 10 10 9 11 11 8 7 9 10 9 10 9 9 10 10 10 10 10 10 9 9 8 9 9 8 8 7 7 7 7 7 8 8 7 5 4 4 4 5 6 6 7 8 10 10 11 12 13 14 14 14 14 15 14 14 16 17 17
13 12 12 13 17 15 13 14 14 17 18 9 7 11 11 9 9 7 7 7 8 9 11 15 19 17 10 6 10 9 10 13 12 10 9 9 9 9 9 8 8 8 9 9 9 9 9 9 9 9 9 9 9 9 8 8 7 7 7 8 9 8 8 6 5 4 5 6 6 8 8 9 11 11 12 13 14 15 15 15 16 15 15 16 17 18
13 13 12 14 18 18 13 12 12 13 15 10 9 12 10 9 9 8 9 9 8 8 9 14 17 13 4 3 9 13 14 14 13 12 10 9 9 8 7 7 8 7 8 8 8 8 8 9 9 9 9 9 9 9 9 9 8 7 8 9 9 9 9 8 7 6 6 6 6 6 7 8 10 12 12 13 14 15 15 15 16 17 17 16 16 17
11 11 14 14 14 17 16 12 11 11 13 12 10 11 10 9 9 9 9 8 8 9 8 12 15 9 6 6 10 14 15 15 16 15 12 10 9 8 7 7 7 7 8 8 8 8 8 8 8 8 9 9 9 10 10 10 9 9 9 10 10 10 9 8 8 8 7 7 6 6 6 7 9 10 12 13 14 16 16 15 16 16 17 17 17 18
12 10 14 14 11 15 17 13 11 11 11 12 11 10 10 9 8 8 8 8 10 9 8 12 11 5 8 6 9 15 16 16 16 15 14 12 9 8 8 7 8 8 8 8 8 9 9 9 9 9 9 9 10 11 10 10 10 10 11 12 12 12 11 10 9 8 8 8 7 7 7 8 8 10 11 12 13 13 15 16 16 16 15 15 17 19
13 10 13 16 13 16 17 15 14 13 10 10 11 11 10 10 7 7 7 5 6 9 9 7 2 4 6 8 12 14 15 15 14 14 14 12 9 9 8 8 8 8 9 9 9 10 10 10 9 10 10 11 11 11 11 11 11 11 11 12 13 13 13 13 12 10 10 9 9 8 8 8 9 10 11 12 13 12 12 15 16 16 14 14 16 18
12 9 14 18 14 16 18 15 13 12 9 8 11 11 10 11 9 7 6 2 3 9 9 6 5 5 6 8 11 13 12 12 13 12 13 12 10 8 8 8 8 9 9 10 10 10 11 10 10 11 11 11 11 11 12 12 11 11 11 12 12 13 14 14 14 13 12 11 10 9 9 10 10 10 10 10 13 14 13 13 14 15 14 15 16 18
11 8 13 20 16 17 21 19 15 14 12 8 10 12 10 11 11 8 7 6 7 9 7 7 8 9 8 6 9 13 13 12 11 12 13 12 10 9 9 9 9 10 10 10 10 10 11 11 11 11 10 11 11 11 11 11 11 11 11 12 13 13 14 14 14 13 13 12 12 11 12 12 11 10 9 9 10 12 12 12 13 14 15 16 17 18
12 8 11 18 17 15 19 18 14 15 19 13 9 12 10 9 11 9 8 9 10 10 7 10 11 9 8 8 12 14 14 14 13 12 12 11 11 10 10 10 10 10 10 10 10 10 11 11 10 10 10 11 11 11 12 11 12 12 12 12 13 13 13 13 13 13 13 12 12 12 13 13 12 11 10 9 9 9 11 12 13 14 15 17 18 19
11 7 7 15 16 14 14 13 11 12 17 15 9 11 11 8 8 9 8 7 9 10 9 10 12 8 6 10 16 17 15 15 13 11 10 11 11 11 11 11 10 10 10 11 11 11 11 10 10 11 11 11 12 12 12 12 13 13 13 13 13 13 13 13 12 13 13 12 12 13 13 13 13 13 11 11 10 10 11 13 14 15 15 16 17 18
9 6 6 12 16 14 11 12 13 12 13 11 8 10 11 8 7 8 8 8 9 9 8 9 9 3 2 6 15 17 15 14 13 12 11 12 13 12 11 11 11 11 11 11 11 11 10 10 11 11 12 12 12 13 13 13 14 14 14 14 14 14 14 13 13 14 14 13 13 13 13 13 13 13 13 12 12 12 13 15 16 17 17 17 16 16
8 7 7 9 13 13 11 14 16 15 14 12 9 10 10 10 9 9 10 11 10 8 8 9 6 3 4 1 11 14 12 13 14 14 13 14 14 13 12 12 11 12 12 11 11 10 10 10 11 12 12 13 13 14 14 14 14 15 15 15 14 15 14 14 14 15 15 14 14 14 14 14 14 13 14 14 13 13 14 17 17 18 19 20 19 18
5 5 8 9 10 12 14 17 18 15 15 15 12 11 10 10 10 9 9 10 10 10 10 6 6 4 5 2 10 14 13 15 17 15 16 16 15 14 13 12 12 12 12 11 10 10 10 10 11 12 13 14 14 15 16 16 16 17 17 16 16 16 16 16 15 15 16 16 16 16 15 15 15 14 15 14 14 14 15 16 17 19 21 22 22 20
3 5 8 8 8 10 11 13 13 10 12 14 14 12 11 11 12 10 8 7 7 10 10 5 6 4 4 7 13 17 17 17 16 16 17 17 16 15 14 13 13 12 12 11 11 11 11 11 12 13 14 14 15 16 17 17 17 18 19 19 18 18 18 18 18 17 17 17 17 17 16 16 15 15 16 16 14 16 17 16 16 18 21 23 24 24
6 7 8 7 9 9 7 8 10 11 11 10 10 13 15 15 15 13 9 6 5 10 12 6 4 5 4 8 13 16 17 16 16 16 15 16 16 15 14 13 12 12 11 11 11 11 12 13 14 14 15 15 15 16 17 17 18 18 19 20 20 19 18 18 19 19 18 18 17 17 18 17 16 17 20 19 17 16 17 17 17 17 18 20 22 25
7 8 7 8 10 11 10 10 10 11 10 9 11 15 16 17 16 13 9 6 5 10 12 6 6 8 9 11 12 14 14 15 16 16 15 15 15 14 14 13 12 12 11 11 11 12 12 14 14 15 16 16 16 16 16 17 17 18 19 20 20 20 19 19 19 18 18 19 18 18 19 18 18 19 21 21 19 18 17 17 18 18 17 17 18 21
6 7 6 4 5 6 8 10 12 12 11 12 14 16 14 14 14 11 9 7 6 7 4 5 14 15 12 13 14 13 14 14 15 16 15 15 15 14 13 12 11 11 11 11 11 12 13 14 15 15 15 15 15 15 15 16 17 17 18 19 19 20 20 19 19 19 19 19 18 19 19 19 18 20 21 21 21 20 18 18 19 20 19 18 18 18
6 6 5 2 2 2 3 4 11 14 14 15 15 13 11 12 11 10 9 6 5 5 1 7 17 19 14 14 15 14 13 13 14 16 15 14 15 14 13 13 12 11 11 12 12 13 13 14 14 14 15 15 15 15 15 15 16 17 18 18 19 19 20 20 19 19 19 20 19 19 20 19 19 19 20 21 21 20 20 20 20 20 20 20 19 18
6 6 6 6 6 4 1 3 9 11 10 11 14 12 11 12 11 11 11 5 3 1 6 11 15 17 15 14 14 14 14 15 15 16 15 15 15 14 14 13 12 12 12 12 12 13 13 13 13 14 14 15 15 16 15 15 16 17 18 18 18 19 19 19 19 19 20 20 20 20 20 19 19 20 21 21 21 21 21 20 19 19 20 20 20 19
7 4 6 8 9 9 7 5 8 9 7 5 7 9 8 9 9 7 6 6 6 8 13 17 17 15 14 14 14 15 17 18 17 17 16 15 15 14 14 13 12 13 13 12 13 13 12 13 13 13 14 14 15 16 16 16 17 17 18 18 18 19 18 18 19 19 20 20 20 20 20 19 20 21 21 21 21 21 21 20 20 20 19 19 19 18
5 4 8 9 7 9 10 9 8 11 13 13 10 8 7 8 9 9 10 12 13 14 17 20 19 13 11 15 18 18 18 18 18 17 16 15 15 14 14 13 13 13 13 12 12 12 12 12 12 13 14 14 15 16 16 16 16 16 17 18 18 18 18 18 18 18 19 20 20 20 20 20 21 21 22 22 22 21 21 21 21 20 20 21 20 19
5 5 7 8 6 6 10 12 13 14 16 15 12 10 8 8 9 9 9 10 14 19 19 17 13 9 11 17 19 18 18 18 18 17 16 15 15 14 13 13 13 13 12 12 11 11 12 12 13 13 14 14 14 15 15 15 15 15 16 17 17 18 18 18 18 18 18 19 19 20 20 20 21 21 21 22 22 22 22 21 22 21 21 23 25 23
8 6 5 6 7 7 8 11 13 13 10 8 7 7 5 6 10 12 12 12 14 16 12 8 9 11 14 17 17 16 18 18 17 17 16 16 15 14 13 13 13 13 12 12 12 12 12 12 13 13 13 14 14 14 14 13 14 15 15 16 16 17 17 17 18 18 18 19 20 20 21 21 21 21 21 22 22 22 22 22 22 22 20 21 25 27
11 10 6 5 6 7 9 9 10 9 6 3 3 4 4 5 11 13 14 13 12 11 9 11 14 16 16 16 16 17 17 17 18 17 16 16 15 14 13 12 12 12 12 12 12 12 12 13 13 13 13 14 13 12 12 12 13 13 14 15 15 17 17 18 18 18 18 19 20 20 21 21 21 22 22 22 23 22 22 22 21 20 20 19 21 25
11 10 6 5 5 7 8 9 8 6 3 2 1 2 6 10 14 16 15 12 12 14 18 19 18 17 17 18 19 20 20 19 19 17 15 15 14 14 13 12 11 11 11 10 10 10 11 12 12 13 13 13 11 10 11 12 12 13 13 14 15 16 17 17 18 19 19 19 20 20 21 21 21 22 22 23 23 23 23 23 22 21 20 19 20 22
9 8 6 5 6 7 7 6 5 4 5 4 4 6 9 11 12 13 13 11 9 12 17 19 18 19 21 22 22 23 23 22 20 17 14 14 13 12 12 11 11 10 10 9 9 9 10 11 12 12 12 11 9 10 11 12 12 12 13 14 14 16 17 17 18 19 20 20 20 20 21 21 21 22 23 23 23 24 24 25 24 23 22 20 20 21
5 5 6 6 6 7 6 3 4 5 6 6 6 7 8 6 5 6 8 7 7 11 16 18 18 20 23 24 24 25 24 22 18 14 13 13 12 12 12 11 11 10 10 9 9 9 9 10 11 11 11 10 9 10 11 12 12 12 13 14 14 15 16 17 18 19 20 20 21 21 21 21 21 22 22 23 23 24 24 24 25 25 24 22 22 21
4 4 4 5 5 6 6 5 4 5 4 5 8 8 4 2 4 9 9 6 6 12 18 19 19 22 24 24 25 24 20 15 10 10 12 13 13 13 12 11 10 9 9 8 8 9 9 9 10 11 10 10 10 11 11 12 13 13 13 14 15 15 16 17 18 19 19 19 20 21 21 21 21 22 22 22 23 23 23 23 24 24 24 23 23 22
3 3 2 4 6 6 5 5 5 3 2 4 9 10 7 5 6 8 6 4 8 14 19 20 21 22 24 24 24 21 13 7 7 11 15 15 13 13 12 11 10 9 8 8 8 8 8 8 9 10 10 10 11 11 11 12 13 13 14 14 15 15 16 16 17 18 18 19 19 20 21 21 21 21 21 22 23 23 23 23 23 23 23 23 23 23
3 4 3 5 6 6 5 5 3 2 3 6 9 10 8 6 6 7 5 5 13 18 19 21 22 21 23 24 22 14 7 5 10 16 18 17 14 13 12 11 9 8 7 7 6 6 7 7 8 9 10 11 11 11 11 11 12 14 14 14 15 15 15 15 16 16 17 18 18 19 21 22 22 21 21 22 22 23 23 23 23 24 23 23 23 23
5 5 5 6 6 6 7 5 4 4 5 8 9 9 8 6 6 6 2 8 20 23 21 21 22 22 22 20 15 8 5 11 19 22 20 17 14 13 12 11 9 8 7 7 6 7 7 7 7 8 9 10 11 11 11 11 12 13 14 14 15 15 15 15 15 16 17 17 18 19 20 21 22 21 21 22 22 22 23 23 24 24 24 23 23 23
4 4 4 5 5 5 5 4 5 4 4 7 9 9 6 3 3 2 8 18 26 26 23 22 22 22 20 16 13 13 17 22 25 23 19 17 15 14 12 11 10 9 8 8 7 6 6 6 7 7 9 9 10 10 11 11 12 12 13 14 15 15 15 15 15 15 16 17 18 19 19 21 22 22 22 22 22 22 23 24 24 24 24 24 23 24
1 2 4 2 1 4 5 5 3 2 5 9 10 7 1 1 5 13 18 22 25 24 24 24 22 21 18 16 18 22 24 25 24 21 19 17 15 14 12 11 10 9 8 7 6 6 6 6 7 7 8 8 9 9 10 11 12 12 13 13 14 14 14 14 15 15 15 16 17 18 18 19 20 21 23 24 23 23 23 24 25 25 24 24 24 24
5 3 2 3 4 3 4 4 2 5 10 11 8 6 5 7 14 20 22 22 23 24 24 23 21 19 19 22 24 25 25 24 22 21 20 17 15 14 12 11 11 9 8 7 7 7 7 7 7 7 8 8 8 9 9 10 11 12 12 12 13 13 13 14 15 15 15 15 16 18 18 18 19 19 21 23 24 24 24 25 26 27 26 24 24 24
6 5 5 7 6 5 5 6 8 11 13 10 9 12 14 15 17 20 22 23 24 23 23 22 22 22 22 25 26 25 24 24 22 21 19 17 15 14 12 11 10 9 8 8 7 7 7 7 7 7 8 8 8 8 9 9 10 11 11 11 11 12 13 14 15 15 16 16 16 17 18 18 19 19 19 21 24 24 24 25 26 29 28 25 24 25
6 5 6 7 8 10 11 10 11 14 14 12 14 15 16 17 18 19 21 23 23 23 22 22 24 25 25 25 26 25 24 24 22 20 18 16 15 13 13 12 11 9 9 8 7 7 8 8 8 7 8 8 8 8 8 9 10 10 10 10 11 11 12 13 14 15 16 16 16 17 18 18 19 19 18 19 22 24 24 24 24 28 30 28 24 25
3 2 4 6 8 5 6 7 10 14 14 15 16 16 15 17 19 19 21 23 23 23 23 24 25 26 25 24 25 26 25 23 22 20 17 15 15 14 13 12 11 10 10 8 8 8 8 8 7 7 7 7 7 8 8 9 9 10 10 10 11 11 11 12 14 15 16 17 16 17 18 18 19 19 18 17 19 22 23 23 22 26 32 32 27 25
3 2 5 7 5 5 8 11 13 15 15 15 15 16 16 17 19 20 21 23 24 24 24 25 25 25 25 24 25 26 24 22 20 18 17 16 16 15 13 13 11 11 10 8 8 8 8 8 7 7 7 7 7 7 8 8 9 9 9 10 10 11 11 11 13 14 15 16 16 17 17 18 18 20 19 17 18 21 23 23 22 26 32 34 32 29
4 5 6 8 9 9 10 13 15 15 14 12 13 15 16 18 20 21 22 23 24 25 25 24 24 25 26 26 25 24 23 21 18 18 17 17 16 15 14 13 12 11 10 10 9 9 8 8 7 7 7 7 7 7 7 8 9 9 9 9 10 11 11 11 12 13 14 15 16 16 17 17 18 19 19 18 18 21 24 24 23 26 30 32 32 32
4 6 7 7 8 6 8 15 16 12 10 12 14 16 17 19 21 22 23 24 25 26 26 25 25 25 25 25 24 22 21 20 18 18 17 17 16 16 15 14 13 12 11 11 10 9 8 8 8 8 8 8 7 8 8 8 8 8 9 9 10 11 11 11 11 12 13 15 15 16 16 17 17 18 18 18 18 19 22 24 24 26 28 30 31 31
3 5 4 3 3 6 14 22 18 11 13 17 17 18 19 20 22 24 25 26 26 25 25 26 27 27 25 24 22 21 20 20 19 18 18 17 16 16 15 14 13 12 11 10 9 9 8 8 8 8 8 8 8 8 8 8 8 8 8 9 10 11 11 12 11 12 13 13 14 15 15 16 16 17 17 18 18 18 19 21 23 24 26 28 29 29
Wind_Direction
193 198 205 211 208 206 204 207 219 225 222 202 197 211 208 203 198 175 173 174 181 194 191 181 155 135 127 111 110 121 134 152 144 165 174 117 76 68 85 89 81 75 77 76 72 74 80 86 86 78 76 82 79 58 58 73 154 220 239 219 237 243 230 229 241 251 257 256 263 272 279 282 282 285 283 281 280 280 283 282 273 263 265 266 260 258
197 209 209 210 210 209 206 209 219 230 243 221 200 203 203 208 196 153 156 168 183 202 186 165 153 137 125 110 105 110 112 105 100 99 99 89 75 72 78 79 77 78 84 86 85 88 93 97 98 96 97 95 82 73 85 90 84 198 210 213 247 265 261 251 253 247 245 255 265 270 277 282 283 288 287 280 274 277 281 280 278 271 263 261 260 258
201 217 212 206 212 213 205 208 218 222 228 223 206 205 203 203 183 142 153 176 191 204 166 152 149 138 128 112 104 105 95 80 76 76 75 78 77 73 69 72 76 73 81 90 90 93 103 109 111 106 100 101 102 100 111 105 78 119 169 211 255 282 300 289 278 249 228 242 258 263 271 275 278 282 281 275 269 268 272 274 276 275 266 260 260 256
201 212 211 205 212 211 201 206 212 210 215 221 214 206 201 202 189 153 163 181 190 188 165 164 155 141 135 118 106 104 100 91 85 80 76 78 76 72 69 68 70 67 74 83 83 88 104 114 118 113 104 108 117 119 118 116 118 155 173 198 244 270 265 274 288 279 247 246 256 262 270 273 274 278 281 282 279 274 274 277 275 272 270 265 261 255
209 205 204 203 208 208 203 203 202 199 205 219 223 217 210 203 183 152 164 178 187 186 176 176 167 160 163 146 129 117 110 104 98 89 78 76 76 74 71 66 65 65 66 70 73 83 99 110 114 112 111 117 124 132 129 125 139 162 179 187 190 218 245 265 284 292 290 290 285 274 274 279 281 287 294 292 288 284 282 284 279 275 274 268 266 258
218 201 196 201 203 206 208 200 196 200 201 211 224 228 222 202 176 165 172 176 186 189 180 187 190 179 179 165 148 139 119 104 100 101 89 76 76 74 68 65 64 63 63 64 64 69 82 88 88 91 99 102 107 135 146 142 147 151 164 179 190 204 223 270 282 292 303 308 301 287 284 291 292 294 300 294 285 285 286 282 273 268 271 272 270 261
218 197 195 203 197 198 207 199 196 204 212 208 207 222 230 210 186 172 171 176 193 194 182 195 209 180 176 175 158 152 132 115 106 100 96 82 76 74 70 68 66 64 63 62 60 59 64 64 58 53 59 66 72 94 136 176 183 167 147 131 178 214 246 270 268 294 306 301 292 288 287 289 291 291 291 288 286 287 288 284 276 270 271 273 270 260
212 202 197 198 192 194 205 202 196 202 220 210 179 205 234 219 190 169 170 192 203 190 184 198 217 204 176 177 162 158 150 138 127 104 98 92 82 77 75 72 70 69 67 64 61 57 54 53 48 43 42 46 49 49 49 43 21 19 56 60 85 128 305 260 231 263 298 293 282 280 280 279 283 286 287 288 288 290 290 287 282 278 272 269 266 261
202 211 196 188 193 199 206 207 197 197 219 223 176 189 223 224 197 178 184 208 204 196 192 196 214 219 180 175 166 166 168 157 141 121 109 101 91 84 80 77 75 73 69 66 62 57 54 50 46 43 40 37 35 35 29 22 17 11 19 26 34 47 329 293 266 253 265 276 274 276 277 275 278 281 284 287 285 285 286 284 281 278 274 269 266 264
199 212 193 185 203 207 203 207 196 192 217 233 188 180 200 223 209 189 199 213 206 211 207 192 206 222 189 169 170 178 185 174 147 127 119 109 101 92 87 82 80 78 72 68 63 58 54 48 45 42 38 32 25 25 22 16 17 17 19 20 15 4 338 321 305 280 262 264 268 277 277 275 279 281 282 284 283 284 283 281 280 275 273 272 270 269
176 185 194 198 216 212 202 206 194 193 210 218 176 180 194 209 212 208 216 225 221 218 210 198 202 214 206 168 181 198 184 159 141 133 132 116 105 97 90 84 81 77 71 67 62 55 50 44 42 37 34 31 21 17 15 12 16 18 18 18 11 360 349 339 326 307 290 279 265 264 273 277 280 279 278 279 280 282 283 281 281 275 272 272 271 271
179 180 203 208 216 214 205 204 192 194 205 189 168 194 194 190 202 212 215 228 235 223 209 204 203 210 219 198 186 175 138 133 135 138 137 121 109 101 92 84 77 72 64 60 53 46 40 36 35 33 31 27 20 16 13 12 13 12 12 10 5 359 355 347 337 330 321 312 283 260 264 276 277 274 277 280 278 276 275 274 276 275 272 273 273 273
199 194 200 201 211 212 207 201 185 192 205 192 187 201 193 185 194 203 205 210 228 233 215 211 212 210 205 104 129 126 122 128 131 131 129 123 115 103 92 81 73 69 62 55 49 41 37 34 31 30 31 28 24 22 20 18 16 15 15 11 8 4 360 356 351 344 332 324 306 276 267 270 274 276 280 284 283 278 273 269 270 270 269 271 272 271
201 194 198 201 204 207 214 208 181 189 202 195 196 199 194 191 189 198 204 199 214 233 228 222 221 192 117 86 99 110 118 122 124 126 121 116 113 103 95 85 75 73 67 60 54 46 41 38 36 33 34 34 33 29 27 26 23 22 21 17 13 8 1 359 357 351 340 327 319 307 296 280 275 279 278 278 280 281 280 277 275 272 271 273 272 270
197 196 198 202 194 194 215 221 191 191 198 195 205 209 206 205 195 197 205 204 205 210 210 221 224 164 127 135 119 115 118 120 124 126 117 110 109 106 98 87 79 74 68 64 59 53 47 42 40 38 37 37 35 32 30 29 27 26 24 21 17 13 7 3 360 355 347 337 331 326 315 297 286 284 276 270 272 279 284 284 281 279 279 281 280 280
203 208 191 195 196 185 205 221 199 192 196 197 208 214 212 210 197 193 211 231 222 206 198 200 199 75 113 133 129 128 127 128 131 127 117 111 111 109 99 86 79 73 67 65 61 55 50 46 44 40 37 36 34 32 30 28 27 26 25 24 21 17 12 6 3 359 350 345 341 333 324 314 307 301 287 272 268 271 279 285 286 286 287 286 284 284
202 211 181 184 199 190 198 216 204 195 196 191 207 216 214 215 213 203 207 254 260 217 196 153 110 108 132 134 138 144 140 139 140 131 122 117 115 111 98 88 81 74 68 65 61 56 52 48 46 42 37 35 33 31 29 27 26 24 22 22 19 15 13 8 5 3 356 352 349 341 334 328 321 319 310 291 275 266 268 280 287 287 284 283 282 282
202 210 176 180 197 192 194 210 212 211 213 195 201 211 211 220 227 222 205 201 217 216 191 157 149 156 166 152 149 154 150 147 144 134 129 123 118 111 98 91 85 78 74 68 63 59 56 51 48 45 40 38 35 32 30 27 25 22 19 20 18 13 11 8 4 2 357 355 352 346 342 337 328 322 316 305 291 275 267 271 278 283 282 280 283 283
205 205 174 183 196 184 186 205 211 213 222 223 208 204 209 217 219 219 215 208 212 214 201 179 169 181 199 169 158 164 157 152 150 143 138 128 119 113 102 95 89 83 77 71 66 60 57 53 48 46 43 40 37 34 32 28 25 23 20 19 18 13 9 5 3 360 357 354 351 349 347 342 333 325 314 303 293 284 281 278 273 276 281 282 284 286
210 215 176 182 193 183 180 201 206 199 214 229 226 209 217 222 215 218 216 210 214 215 210 192 181 195 210 166 165 169 158 154 155 148 138 125 118 114 105 99 91 84 78 72 69 63 57 54 48 46 44 41 39 35 32 29 27 25 22 20 18 14 8 4 3 359 356 354 350 349 349 347 342 333 322 306 289 282 287 287 274 267 272 278 282 286
208 220 191 182 188 190 186 195 205 196 194 212 223 210 210 210 211 219 215 214 220 217 212 206 192 170 62 156 166 162 154 155 151 140 131 122 116 110 104 99 90 83 79 72 69 63 57 53 49 46 44 42 40 37 34 31 29 25 23 21 16 13 9 4 2 0 358 356 353 351 350 350 349 342 330 315 298 285 279 277 270 263 263 266 270 277
199 205 191 189 188 191 194 195 205 208 194 193 211 216 207 199 201 210 213 217 219 218 222 215 181 87 18 178 159 148 146 148 144 137 127 119 115 109 102 96 88 83 78 72 69 63 57 53 49 45 43 42 39 37 34 31 29 26 25 23 17 13 11 6 4 2 358 357 356 356 354 352 351 346 338 327 315 301 286 278 273 267 265 265 265 267
199 208 189 199 199 191 194 196 204 217 208 198 208 222 214 203 208 214 214 215 215 222 229 207 133 79 2 47 134 135 137 138 137 133 124 118 114 109 102 95 89 84 79 75 70 64 58 54 51 46 43 41 37 35 33 29 27 25 24 23 18 14 13 9 7 5 0 359 359 357 356 355 351 347 344 339 329 319 307 296 285 275 271 269 267 267
150 220 196 198 206 195 194 194 196 217 225 210 205 213 217 210 211 223 228 216 216 228 226 182 124 110 25 59 114 127 129 130 129 125 123 119 115 110 105 99 93 88 83 78 73 67 63 57 52 48 43 41 38 34 32 29 26 23 21 20 17 15 15 10 8 8 4 2 1 358 357 356 352 351 351 348 337 327 322 315 302 289 281 275 271 269
169 215 199 191 196 190 194 198 193 204 220 221 207 209 220 216 208 219 233 217 216 234 225 193 127 138 114 94 112 122 125 125 123 123 122 119 117 114 109 103 98 93 86 81 77 71 64 57 52 48 44 40 38 34 32 29 27 23 20 19 16 14 15 13 9 7 5 4 2 360 359 357 356 357 355 350 344 337 331 324 315 307 297 289 284 278
186 212 203 205 203 189 190 200 199 199 205 217 217 212 219 225 217 212 214 202 206 229 227 199 128 127 131 128 127 128 127 125 124 124 121 119 120 118 114 109 103 96 89 83 79 72 64 58 52 47 43 39 36 34 32 28 26 23 20 18 16 13 13 14 11 7 5 5 4 2 1 359 358 359 356 353 350 343 338 333 326 320 312 300 295 290
192 210 202 230 238 213 205 201 195 195 198 208 216 212 214 230 236 225 211 206 207 217 228 135 134 136 141 143 139 137 133 129 129 127 123 123 124 121 118 113 105 99 92 84 79 70 63 57 50 46 42 37 34 32 30 28 24 21 19 16 15 13 12 12 12 10 6 5 5 4 3 1 0 360 358 356 352 346 343 343 339 333 326 315 302 294
195 199 181 182 241 282 321 232 194 195 203 207 207 207 207 216 232 236 222 215 227 225 169 123 138 140 147 152 144 140 138 132 131 129 127 129 127 123 119 113 107 102 93 85 76 67 61 55 47 43 38 35 33 30 28 27 23 20 18 15 13 13 12 10 10 11 9 7 7 6 4 3 2 0 358 357 355 351 351 351 349 345 338 330 318 303
201 190 173 173 175 164 340 253 200 193 205 210 201 202 212 211 212 224 223 225 313 288 143 141 140 137 145 151 144 140 138 132 130 130 131 132 127 123 120 114 109 102 92 82 73 64 58 52 46 41 37 33 31 28 26 25 21 18 16 14 12 12 11 10 10 10 10 8 7 6 6 4 2 1 359 358 358 357 356 354 354 351 346 339 331 318
206 179 171 179 170 160 157 171 176 163 143 135 160 178 201 203 193 197 188 151 106 107 130 137 131 128 138 142 135 134 132 128 129 131 132 132 127 124 120 114 109 99 88 79 71 63 57 52 46 40 36 33 29 27 26 23 18 15 14 13 12 11 10 9 10 12 11 9 8 6 6 4 3 3 1 360 360 359 359 358 355 356 356 351 341 329
196 170 176 178 162 151 149 145 146 135 115 94 90 108 120 127 127 111 104 114 116 116 125 127 121 117 125 127 125 127 128 129 131 132 132 130 127 124 120 113 107 98 87 78 71 63 57 51 45 39 34 31 28 27 26 20 14 12 13 12 11 11 11 9 10 12 12 10 9 7 6 5 4 4 4 3 2 0 0 360 359 1 5 6 359 347
185 184 182 173 154 146 151 148 137 117 103 87 68 65 81 94 98 96 94 106 121 126 127 126 125 129 132 128 126 127 131 132 133 132 131 129 128 125 120 113 105 97 88 80 71 62 57 49 42 37 32 30 30 27 21 17 14 11 12 12 11 12 12 11 11 12 13 12 10 9 8 6 5 5 5 4 3 2 2 1 1 2 6 11 12 7
181 180 183 174 154 144 150 148 141 133 126 103 62 31 34 86 97 92 84 90 116 134 139 136 138 143 140 136 131 131 135 134 132 133 132 130 129 126 118 110 103 95 87 78 70 62 55 47 41 35 30 31 33 25 17 17 17 13 12 12 13 14 15 15 13 13 13 12 11 11 9 7 6 6 5 4 4 3 3 2 2 3 3 6 11 14
184 179 184 184 162 153 160 164 165 171 169 123 56 351 1 75 99 97 88 85 92 98 94 103 124 136 140 139 135 134 135 133 130 131 130 129 130 126 120 112 104 98 89 79 69 60 52 46 40 35 35 37 32 20 15 19 20 16 14 14 15 17 18 18 16 16 15 13 12 11 10 8 8 8 7 6 5 4 4 3 2 2 2 1 3 9
186 178 179 189 175 156 161 175 182 179 150 112 119 48 58 79 94 92 83 77 83 92 99 108 124 135 134 132 131 129 128 126 124 125 127 130 131 127 123 117 107 101 95 84 74 62 51 45 40 38 40 38 27 18 19 21 21 18 17 18 19 20 20 20 19 19 17 15 13 11 10 9 8 8 8 7 7 7 6 4 2 2 2 1 359 0
190 177 178 181 167 157 166 185 182 138 116 125 139 118 109 116 118 99 76 66 81 103 114 120 126 129 127 127 126 125 123 120 116 116 124 130 130 128 125 119 113 107 99 90 80 68 55 47 43 43 43 37 27 27 28 24 22 22 21 22 23 22 22 22 21 21 19 18 16 13 11 9 8 8 8 7 7 7 6 6 5 3 3 2 0 359
199 179 172 166 162 168 162 133 120 137 145 156 163 149 133 138 147 117 89 79 93 114 124 127 127 128 128 127 127 126 123 116 109 112 126 131 129 126 123 119 115 107 99 91 81 71 61 53 50 49 47 42 37 36 33 28 27 27 26 25 25 23 23 23 22 21 20 19 18 16 14 11 9 9 8 7 7 7 6 5 5 4 4 2 1 1
193 187 188 177 173 174 154 127 141 164 166 168 170 166 152 97 100 108 108 104 116 129 134 133 132 132 133 132 134 136 130 118 113 128 138 135 129 126 123 118 114 108 99 90 81 74 67 60 57 53 50 47 43 39 36 32 31 31 29 27 26 24 24 24 22 20 19 19 17 16 14 13 11 11 10 9 9 7 5 4 4 5 4 4 2 360
156 157 219 213 188 175 170 172 173 158 92 140 158 164 174 175 145 139 141 139 143 146 144 140 137 139 140 141 145 150 147 131 133 145 147 142 134 130 127 120 117 114 104 94 87 82 75 67 62 57 52 49 45 40 37 35 34 33 32 28 26 25 24 23 21 19 18 17 15 14 14 14 13 12 12 11 11 10 8 5 5 5 5 5 5 3
186 162 197 216 194 174 181 178 140 76 75 121 142 155 161 162 174 197 220 171 156 157 151 145 144 144 146 148 153 164 177 157 146 149 148 143 135 132 129 124 122 118 110 103 95 86 82 75 65 58 53 50 45 41 39 37 35 35 33 29 27 25 24 22 20 19 17 16 15 15 15 14 14 14 13 13 12 12 11 9 7 7 7 7 6 6
189 179 187 199 178 170 187 169 105 83 104 125 141 150 146 150 187 219 225 138 149 154 151 148 147 145 147 152 159 166 142 130 138 143 143 140 137 134 130 126 123 118 112 109 101 91 88 81 68 60 55 50 47 43 39 37 36 35 32 29 28 25 22 20 20 18 18 17 17 17 17 16 16 16 15 15 13 12 12 12 10 8 8 8 8 7
183 181 192 197 180 188 196 149 111 103 119 142 147 137 134 174 199 134 109 129 142 146 147 148 146 144 145 145 140 130 119 122 132 138 140 140 138 136 133 130 126 119 110 106 102 99 97 86 74 65 57 51 48 44 40 37 36 34 31 28 27 24 22 22 21 19 18 19 18 18 18 17 18 20 19 17 16 15 13 13 12 11 9 8 8 8
55 217 197 154 120 211 188 148 131 131 151 164 159 134 88 290 122 115 120 130 137 140 142 144 144 144 141 129 123 123 123 126 132 136 139 139 138 138 137 134 129 124 116 109 103 103 103 92 78 68 58 51 47 42 38 36 33 31 30 27 25 24 23 24 23 21 19 20 19 18 18 17 17 20 21 20 19 18 16 14 15 14 12 10 9 9
13 316 204 85 17 279 194 143 89 99 134 159 162 123 98 110 123 128 129 132 136 140 141 141 142 143 138 129 127 128 129 131 135 137 138 139 139 140 139 136 134 129 123 114 102 99 102 94 81 70 59 50 43 39 35 32 30 28 27 26 24 24 25 25 25 24 22 21 20 19 19 18 16 17 19 19 18 18 16 16 16 16 14 13 12 11
31 31 79 75 45 37 77 92 89 95 112 125 116 110 113 117 125 133 133 133 138 141 140 139 138 137 135 133 132 132 133 135 137 138 139 139 139 140 139 139 138 130 122 112 101 97 98 90 82 72 60 48 40 36 32 29 28 27 26 25 24 25 27 26 25 26 24 22 21 20 18 19 17 16 18 20 20 18 17 15 15 16 16 15 14 14
61 56 74 94 102 87 74 81 98 101 107 110 108 111 116 119 126 133 134 135 138 139 139 138 137 136 136 135 134 135 136 138 138 138 139 139 139 139 138 136 134 128 122 113 102 100 98 92 85 71 58 48 39 34 32 29 29 27 26 26 25 25 27 26 26 28 26 22 22 21 19 19 18 17 15 18 20 19 18 17 15 15 18 19 17 17
75 28 76 121 150 135 89 102 118 118 118 115 111 112 116 121 128 133 134 135 136 136 137 137 137 137 138 137 137 136 137 138 139 139 141 140 138 138 136 133 130 125 121 115 107 106 102 93 83 66 52 44 35 32 31 30 30 29 28 28 26 25 27 28 27 28 27 23 22 21 20 19 19 17 15 15 18 19 20 20 16 14 16 19 19 19
109 123 108 107 115 107 113 131 133 124 122 122 120 120 121 123 127 129 131 133 134 134 135 136 137 139 138 138 138 137 137 139 140 141 141 139 137 137 135 132 129 125 122 118 112 107 99 88 75 59 47 41 36 33 33 32 31 30 31 32 28 25 27 29 28 28 26 24 22 21 20 19 19 18 17 14 12 14 18 22 19 14 14 17 18 18
124 149 110 90 99 103 117 137 137 125 124 130 128 125 125 128 130 130 130 133 134 134 135 136 137 138 138 138 138 138 138 139 141 140 139 137 136 135 132 130 128 125 122 118 110 103 94 82 68 55 49 45 41 39 36 33 33 35 37 35 30 28 28 28 28 28 26 24 23 21 20 19 18 18 18 15 10 8 10 15 18 16 14 14 15 16
159 149 111 110 136 141 146 156 153 139 135 142 138 132 132 134 135 134 135 137 138 137 137 137 137 137 138 138 139 139 139 139 139 138 135 133 133 132 130 130 128 124 122 118 111 102 91 77 65 58 54 50 46 44 40 37 38 43 43 38 33 30 29 28 28 28 26 24 22 20 18 18 17 16 17 16 14 10 6 5 8 11 13 13 13 13
75 120 125 157 157 131 151 165 165 141 131 140 141 137 136 137 139 139 140 140 139 138 138 138 138 138 139 139 139 138 137 136 136 134 132 131 131 131 131 131 129 126 124 120 112 102 90 77 67 61 55 50 47 44 41 43 47 49 46 40 35 33 32 31 29 26 23 22 20 18 17 16 15 14 13 13 13 13 8 3 0 3 8 12 12 10